PBO Station Position Time Series. Reference Frame : NAM14
Format Version,1.1.0
4-character ID,P447
Station name,MorrowAir_OR2007
Begin Date, 2007-11-05
End Date, 2019-10-07
Release Date, 2019-10-08
Reference position, 45.4528211464 North Latitude, -119.6901250345 East Longitude, 471.24052 meters elevation,
Date, North (mm), East (mm), Vertical (mm), North Std. Deviation (mm), East Std. Deviation (mm),              Vertical Std. Deviation (mm), Quality,
2007-11-05,0.00, 0.00, 0.00, 2.17, 1.56, 6.96, repro,
2007-11-06,-0.41, -0.38, -1.66, 2.22, 1.65, 7.38, repro,
2007-11-07,0.17, -1.31, -3.90, 2.17, 1.57, 6.96, repro,
2007-11-08,-0.70, 0.14, 3.52, 2.19, 1.59, 7.03, repro,
2007-11-09,-1.66, -0.28, 1.97, 2.19, 1.59, 7.04, repro,
2007-11-10,0.00, -0.93, 5.21, 2.15, 1.56, 6.91, repro,
2007-11-11,0.16, -0.93, 6.93, 2.16, 1.56, 6.95, repro,
2007-11-12,-1.16, -0.16, 11.35, 2.15, 1.56, 6.93, repro,
2007-11-13,-0.56, -2.19, -0.18, 2.16, 1.56, 6.93, repro,
2007-11-14,-0.56, -0.53, -1.70, 2.16, 1.56, 6.92, repro,
2007-11-15,-1.30, -0.78, 4.87, 2.20, 1.58, 7.06, repro,
2007-11-16,-1.06, -0.78, 10.83, 2.15, 1.56, 6.92, repro,
2007-11-17,0.18, -1.59, 7.53, 2.20, 1.58, 7.04, repro,
2007-11-18,0.75, -1.32, 4.44, 2.18, 1.58, 7.01, repro,
2007-11-19,-1.29, -1.28, 0.81, 2.16, 1.59, 7.01, repro,
2007-11-20,-0.19, -2.23, -3.76, 2.18, 1.59, 7.05, repro,
2007-11-21,-0.48, -1.13, -3.61, 2.23, 1.66, 7.29, repro,
2007-11-22,0.43, -1.22, -4.10, 2.21, 1.61, 7.05, repro,
2007-11-23,0.08, -0.84, -1.55, 2.28, 1.69, 7.41, repro,
2007-11-24,-0.20, -1.97, -1.44, 2.23, 1.65, 7.18, repro,
2007-11-25,0.02, -1.56, 0.10, 2.24, 1.65, 7.20, repro,
2007-11-26,-0.39, -0.59, -1.60, 2.29, 1.68, 7.42, repro,
2007-11-27,-0.16, -1.89, -2.39, 2.30, 1.72, 7.46, repro,
2007-11-28,-0.19, -1.62, -2.64, 2.24, 1.64, 7.19, repro,
2007-11-29,-0.91, -1.41, -5.03, 2.27, 1.67, 7.34, repro,
2007-11-30,0.40, -1.79, -3.02, 2.25, 1.68, 7.31, repro,
2007-12-01,0.32, -2.00, 5.33, 2.32, 1.74, 7.65, repro,
2007-12-02,-0.22, -1.24, 5.98, 2.35, 1.76, 7.82, repro,
2007-12-03,0.41, -2.14, 1.57, 2.48, 1.87, 8.23, repro,
2007-12-04,0.54, -0.49, 3.34, 2.40, 1.81, 8.00, repro,
2007-12-05,0.44, 0.29, 3.29, 2.43, 1.86, 8.24, repro,
2007-12-06,-0.49, -1.33, 2.18, 2.61, 2.08, 8.92, repro,
2007-12-07,0.02, -2.74, 1.08, 2.37, 1.81, 7.84, repro,
2007-12-08,1.55, -1.31, 0.80, 2.36, 1.76, 7.63, repro,
2007-12-09,1.64, -1.89, -2.52, 2.70, 2.36, 9.70, repro,
2007-12-10,0.28, -1.49, -1.80, 2.33, 1.74, 7.54, repro,
2007-12-11,-0.12, -1.57, -5.06, 2.31, 1.70, 7.45, repro,
2007-12-12,1.90, -2.64, -9.09, 2.23, 1.62, 7.20, repro,
2007-12-13,1.24, -1.91, -9.77, 2.27, 1.67, 7.27, repro,
2007-12-14,0.99, -1.10, -2.41, 2.20, 1.58, 7.01, repro,
2007-12-15,-0.17, -1.33, 3.85, 2.26, 1.63, 7.15, repro,
2007-12-16,0.36, -1.04, -1.49, 2.28, 1.65, 7.28, repro,
2007-12-17,1.17, -2.48, 5.56, 2.28, 1.65, 7.24, repro,
2007-12-18,0.75, -1.27, 5.48, 2.24, 1.62, 7.22, repro,
2007-12-19,-0.09, -1.82, 4.95, 2.22, 1.63, 7.19, repro,
2007-12-20,0.13, -1.68, 4.82, 2.22, 1.62, 7.10, repro,
2007-12-21,0.33, -1.47, -0.00, 2.39, 1.77, 7.96, repro,
2007-12-22,-0.50, -2.19, -2.57, 2.31, 1.73, 7.56, repro,
2007-12-23,0.12, -0.31, -5.39, 2.26, 1.66, 7.35, repro,
2007-12-24,0.52, -2.01, -2.49, 2.27, 1.67, 7.32, repro,
2007-12-25,0.52, -1.38, -4.94, 2.28, 1.66, 7.29, repro,
2007-12-26,-0.12, -1.66, 1.44, 2.21, 1.60, 7.07, repro,
2007-12-27,-0.57, -0.72, 4.53, 2.28, 1.65, 7.36, repro,
2007-12-28,-0.68, -0.96, 1.91, 2.29, 1.65, 7.40, repro,
2007-12-29,0.60, -1.92, 2.00, 2.26, 1.61, 7.24, repro,
2007-12-30,2.29, -1.56, -1.18, 2.28, 1.64, 7.39, repro,
2007-12-31,1.25, -0.99, -8.45, 2.19, 1.54, 6.86, repro,
2008-01-01,0.42, -0.57, -11.63, 2.20, 1.56, 7.00, repro,
2008-01-02,-1.14, -0.85, -2.24, 2.22, 1.57, 7.08, repro,
2008-01-03,-0.92, -0.88, 4.29, 2.25, 1.60, 7.23, repro,
2008-01-04,-0.63, -0.66, 11.73, 2.18, 1.54, 6.97, repro,
2008-01-05,-0.91, -1.88, 14.19, 2.17, 1.53, 6.89, repro,
2008-01-06,0.16, -1.06, 6.69, 2.16, 1.53, 6.80, repro,
2008-01-07,-1.02, -1.87, 7.64, 2.18, 1.54, 6.93, repro,
2008-01-08,-0.68, -0.57, 6.05, 2.25, 1.56, 7.08, repro,
2008-01-09,-0.53, -0.97, 2.65, 2.23, 1.56, 7.08, repro,
2008-01-10,-0.89, -1.98, 1.37, 2.16, 1.54, 6.88, repro,
2008-01-11,0.18, -1.31, 1.45, 2.16, 1.53, 6.79, repro,
2008-01-12,-0.99, -1.56, -2.76, 2.17, 1.54, 6.85, repro,
2008-01-13,-1.02, -1.25, -13.58, 2.18, 1.55, 6.93, repro,
2008-01-14,-1.17, -0.74, -5.52, 2.18, 1.56, 6.96, repro,
2008-01-15,0.06, -2.14, -7.93, 2.15, 1.54, 6.87, repro,
2008-01-16,-0.14, -1.58, -8.33, 2.20, 1.57, 7.04, repro,
2008-01-17,-0.89, -0.80, -3.13, 2.23, 1.57, 7.09, repro,
2008-01-18,0.20, -1.22, -4.17, 2.19, 1.58, 7.03, repro,
2008-01-19,0.85, -0.93, -6.87, 2.18, 1.55, 6.94, repro,
2008-01-20,0.54, -0.75, -4.13, 2.15, 1.55, 6.90, repro,
2008-01-21,0.25, -1.18, -3.33, 2.14, 1.55, 6.88, repro,
2008-01-22,-0.30, -0.60, -7.46, 2.17, 1.54, 6.91, repro,
2008-01-23,0.08, -0.20, -4.95, 2.15, 1.54, 6.87, repro,
2008-01-24,0.24, 0.30, 0.76, 2.17, 1.54, 6.90, repro,
2008-01-25,0.72, -0.56, -0.23, 2.14, 1.54, 6.84, repro,
2008-01-26,-0.36, -0.25, 0.28, 2.15, 1.55, 6.90, repro,
2008-01-27,-1.71, -2.61, -0.44, 2.14, 1.55, 6.91, repro,
2008-01-28,-0.48, 0.14, 12.32, 2.16, 1.55, 6.89, repro,
2008-01-29,0.04, -1.18, 2.80, 2.25, 1.65, 7.19, repro,
2008-01-30,-0.58, -0.97, -1.12, 2.26, 1.61, 7.17, repro,
2008-01-31,-0.32, -1.11, -1.06, 2.15, 1.55, 6.90, repro,
2008-02-01,-1.09, -0.86, -2.50, 2.15, 1.55, 6.93, repro,
2008-02-02,0.37, -0.74, 0.84, 2.16, 1.54, 6.88, repro,
2008-02-03,-0.46, 0.26, 1.10, 2.17, 1.55, 6.92, repro,
2008-02-04,-0.10, -0.23, -5.35, 2.15, 1.54, 6.88, repro,
2008-02-05,0.07, -0.09, -1.55, 2.18, 1.60, 7.01, repro,
2008-02-06,-0.71, -1.37, -0.64, 2.19, 1.60, 7.06, repro,
2008-02-07,-0.61, -0.90, 0.70, 2.16, 1.57, 6.97, repro,
2008-02-08,0.49, 0.08, -4.60, 2.15, 1.54, 6.85, repro,
2008-02-09,0.43, -0.16, -4.32, 2.17, 1.55, 6.93, repro,
2008-02-10,-0.21, -0.50, -3.10, 2.17, 1.54, 6.89, repro,
2008-02-11,-1.08, 0.51, -2.53, 2.15, 1.55, 6.91, repro,
2008-02-12,-0.52, -0.39, -7.49, 2.21, 1.59, 7.17, repro,
2008-02-13,-0.36, -1.02, 0.01, 2.15, 1.53, 6.86, repro,
2008-02-14,1.05, -0.45, -7.01, 2.15, 1.53, 6.84, repro,
2008-02-15,0.40, 0.28, -4.97, 2.18, 1.58, 7.03, repro,
2008-02-16,-0.67, 0.58, -2.59, 2.14, 1.54, 6.89, repro,
2008-02-17,-0.50, -0.50, -6.57, 2.15, 1.55, 6.93, repro,
2008-02-18,-0.29, -0.51, -5.07, 2.12, 1.53, 6.78, repro,
2008-02-19,-0.78, 0.28, -3.10, 2.15, 1.53, 6.85, repro,
2008-02-20,-0.26, 0.27, -1.41, 2.16, 1.55, 6.91, repro,
2008-02-21,-0.86, -0.09, -0.92, 2.15, 1.54, 6.87, repro,
2008-02-22,-0.42, -0.28, 4.00, 2.15, 1.55, 6.92, repro,
2008-02-23,-1.07, -0.23, -4.20, 2.13, 1.54, 6.89, repro,
2008-02-24,-1.47, -0.12, 4.29, 2.15, 1.54, 6.89, repro,
2008-02-25,-0.17, -0.72, -5.34, 2.16, 1.54, 6.88, repro,
2008-02-26,-0.35, -0.20, -15.53, 2.15, 1.53, 6.85, repro,
2008-02-27,-0.82, 0.52, -14.06, 2.14, 1.54, 6.90, repro,
2008-02-28,-0.50, 0.34, -3.71, 2.15, 1.54, 6.90, repro,
2008-02-29,-0.82, -0.24, -0.59, 2.15, 1.55, 6.92, repro,
2008-03-01,-1.30, -0.14, -2.60, 2.15, 1.54, 6.88, repro,
2008-03-02,-0.84, -0.07, -5.37, 2.15, 1.53, 6.83, repro,
2008-03-03,-0.24, -1.23, -7.12, 2.16, 1.54, 6.92, repro,
2008-03-04,-0.44, -1.22, -5.96, 2.16, 1.55, 6.94, repro,
2008-03-05,0.55, -0.12, -4.58, 2.23, 1.66, 7.29, repro,
2008-03-06,-0.40, -0.38, -6.09, 2.16, 1.54, 6.85, repro,
2008-03-07,-0.08, -0.34, -6.86, 2.15, 1.53, 6.82, repro,
2008-03-08,-0.46, -0.41, -6.54, 2.25, 1.59, 7.19, repro,
2008-03-09,-0.73, -1.15, -6.26, 2.21, 1.59, 7.12, repro,
2008-03-10,0.04, 1.08, -4.84, 2.15, 1.55, 6.92, repro,
2008-03-11,-0.29, 0.13, -0.06, 2.15, 1.55, 6.88, repro,
2008-03-12,0.59, -0.74, -2.86, 2.18, 1.59, 7.05, repro,
2008-03-13,-1.13, -0.86, 0.28, 2.17, 1.56, 6.95, repro,
2008-03-14,-1.19, -0.42, -1.21, 2.19, 1.57, 7.07, repro,
2008-03-15,-0.20, 0.07, -3.37, 2.15, 1.55, 6.90, repro,
2008-03-16,0.60, -0.93, -5.73, 2.19, 1.59, 7.07, repro,
2008-03-17,-0.11, -0.84, -1.08, 2.32, 1.71, 7.62, repro,
2008-03-18,0.78, 0.25, -6.84, 2.20, 1.60, 7.13, repro,
2008-03-19,-0.80, -0.44, -2.42, 2.19, 1.56, 6.99, repro,
2008-03-20,-1.03, -0.56, -4.71, 2.18, 1.57, 7.02, repro,
2008-03-21,1.14, 0.04, -14.36, 2.20, 1.58, 7.05, repro,
2008-03-22,0.89, -0.12, -12.23, 2.20, 1.58, 7.06, repro,
2008-03-23,0.20, 0.08, -9.53, 2.21, 1.58, 7.07, repro,
2008-03-24,0.09, -1.03, -2.73, 2.19, 1.56, 6.99, repro,
2008-03-25,-0.81, -0.79, 0.04, 2.22, 1.60, 7.08, repro,
2008-03-26,-1.09, -1.23, -2.95, 2.21, 1.61, 7.11, repro,
2008-03-27,-0.48, -1.24, -9.51, 2.21, 1.61, 7.12, repro,
2008-03-28,-0.43, -0.59, -5.62, 2.20, 1.57, 6.98, repro,
2008-03-29,-1.02, 0.04, 0.01, 2.18, 1.54, 6.92, repro,
2008-03-30,1.40, -0.10, -5.89, 2.18, 1.54, 6.95, repro,
2008-03-31,0.03, -0.54, -4.95, 2.18, 1.54, 6.94, repro,
2008-04-01,0.26, -0.22, -4.60, 2.18, 1.55, 6.96, repro,
2008-04-02,0.09, 0.20, -1.95, 2.24, 1.55, 7.03, repro,
2008-04-03,-0.08, -0.86, -6.49, 2.20, 1.55, 7.00, repro,
2008-04-04,-0.29, -0.08, -0.47, 2.19, 1.55, 7.04, repro,
2008-04-05,-0.56, 0.01, 1.11, 2.18, 1.54, 7.00, repro,
2008-04-06,-0.53, -0.10, 1.42, 2.19, 1.54, 6.98, repro,
2008-04-07,-1.02, -0.72, -4.03, 2.18, 1.54, 6.94, repro,
2008-04-08,-0.74, -0.61, -4.26, 2.18, 1.54, 6.96, repro,
2008-04-09,-0.58, -1.18, -2.05, 2.19, 1.54, 6.96, repro,
2008-04-10,-1.85, 0.76, -2.67, 2.20, 1.55, 7.03, repro,
2008-04-11,-1.38, -0.10, -6.63, 2.18, 1.54, 7.00, repro,
2008-04-12,0.29, -0.25, -8.25, 2.18, 1.54, 7.00, repro,
2008-04-13,-0.67, -0.40, -5.01, 2.19, 1.54, 7.00, repro,
2008-04-14,-1.64, -0.22, 1.44, 2.19, 1.54, 7.01, repro,
2008-04-15,-0.48, -0.42, 5.70, 2.23, 1.60, 7.18, repro,
2008-04-16,-1.19, -1.12, -0.44, 2.23, 1.60, 7.18, repro,
2008-04-17,-0.12, 0.09, -2.53, 2.18, 1.54, 7.04, repro,
2008-04-18,0.37, 0.22, -4.02, 2.18, 1.53, 6.99, repro,
2008-04-19,0.29, 0.68, -0.49, 2.18, 1.53, 6.98, repro,
2008-04-20,-1.04, -0.37, -1.20, 2.19, 1.54, 7.04, repro,
2008-04-21,-0.32, -0.62, -2.54, 2.19, 1.54, 7.01, repro,
2008-04-22,-0.38, -0.15, -0.84, 2.21, 1.54, 7.07, repro,
2008-04-23,0.36, -0.06, -3.24, 2.22, 1.56, 7.17, repro,
2008-04-24,-0.71, -0.74, -5.71, 2.21, 1.56, 7.14, repro,
2008-04-25,0.95, -0.45, -11.35, 2.21, 1.54, 7.07, repro,
2008-04-26,0.04, -0.82, -11.69, 2.31, 1.62, 7.38, repro,
2008-04-27,-0.69, 0.13, -6.23, 2.29, 1.57, 7.17, repro,
2008-04-28,0.11, 0.62, -4.02, 2.32, 1.57, 7.22, repro,
2008-04-29,-0.33, -0.06, -0.13, 2.36, 1.63, 7.46, repro,
2008-04-30,-0.37, -0.66, 0.79, 2.25, 1.58, 7.20, repro,
2008-05-01,-0.44, -0.11, -7.80, 2.23, 1.57, 7.11, repro,
2008-05-02,-0.53, -0.33, -3.46, 2.25, 1.60, 7.21, repro,
2008-05-03,-0.46, 0.43, -3.13, 2.25, 1.57, 7.16, repro,
2008-05-04,0.22, 0.23, 0.15, 2.24, 1.54, 7.07, repro,
2008-05-05,-1.09, -0.53, -2.19, 2.27, 1.58, 7.25, repro,
2008-05-06,-0.16, -1.15, -4.36, 2.25, 1.58, 7.18, repro,
2008-05-07,0.23, -1.49, -0.71, 2.18, 1.53, 6.93, repro,
2008-05-08,-0.65, -0.99, -4.32, 2.22, 1.55, 7.08, repro,
2008-05-09,-1.57, -1.05, -5.42, 2.23, 1.55, 7.09, repro,
2008-05-10,-1.09, -0.10, 3.42, 2.22, 1.53, 6.99, repro,
2008-05-11,-1.38, 0.52, -0.05, 2.24, 1.57, 7.18, repro,
2008-05-12,-1.02, -0.77, -0.59, 2.24, 1.57, 7.07, repro,
2008-05-13,-0.20, -0.23, 1.80, 2.18, 1.52, 6.92, repro,
2008-05-14,-2.36, 0.15, -0.12, 2.20, 1.52, 6.92, repro,
2008-05-15,-1.30, -0.29, -11.33, 2.22, 1.52, 6.97, repro,
2008-05-16,-0.62, 0.13, -7.74, 2.23, 1.54, 7.04, repro,
2008-05-17,-1.16, 0.23, -7.15, 2.22, 1.56, 7.12, repro,
2008-05-18,-1.22, -1.25, 2.80, 2.25, 1.57, 7.12, repro,
2008-05-19,-0.39, -0.17, 8.20, 2.18, 1.52, 6.92, repro,
2008-05-20,-0.99, -0.27, 3.82, 2.21, 1.53, 6.98, repro,
2008-05-21,-0.82, 0.25, 6.93, 2.19, 1.52, 6.93, repro,
2008-05-22,-0.09, -0.06, 1.85, 2.24, 1.58, 7.21, repro,
2008-05-23,-0.44, -0.05, 1.93, 2.20, 1.57, 7.11, repro,
2008-05-24,-0.96, -1.62, -0.22, 2.19, 1.53, 6.98, repro,
2008-05-25,-1.68, -0.39, 4.48, 2.18, 1.52, 6.92, repro,
2008-05-26,-0.35, 0.41, -1.07, 2.21, 1.56, 7.06, repro,
2008-05-27,-0.73, 1.31, 3.30, 2.20, 1.54, 7.00, repro,
2008-05-28,0.42, -0.48, -2.10, 2.27, 1.62, 7.24, repro,
2008-05-29,-0.01, 0.14, -1.23, 2.24, 1.58, 7.12, repro,
2008-05-30,-0.76, -0.85, -0.42, 2.19, 1.52, 6.93, repro,
2008-05-31,-0.76, -0.40, 0.99, 2.20, 1.52, 6.94, repro,
2008-06-01,-0.43, 0.31, -1.21, 2.19, 1.53, 6.95, repro,
2008-06-02,0.81, 1.00, -4.59, 2.21, 1.54, 7.00, repro,
2008-06-03,1.09, 0.91, -1.35, 2.29, 1.61, 7.33, repro,
2008-06-04,-0.02, 0.21, 5.10, 2.19, 1.53, 6.96, repro,
2008-06-05,-0.56, -0.18, 2.11, 2.19, 1.52, 6.91, repro,
2008-06-06,-0.11, -0.31, 2.22, 2.24, 1.56, 7.11, repro,
2008-06-07,-1.67, 0.06, 4.63, 2.26, 1.60, 7.21, repro,
2008-06-08,0.49, 0.47, -2.91, 2.26, 1.59, 7.19, repro,
2008-06-09,-0.67, 1.16, 3.32, 2.26, 1.58, 7.16, repro,
2008-06-10,-1.87, -1.05, 0.57, 2.19, 1.52, 6.97, repro,
2008-06-11,-0.06, 0.05, -2.97, 2.18, 1.52, 6.94, repro,
2008-06-12,-0.52, 0.99, -5.03, 2.19, 1.55, 7.04, repro,
2008-06-13,-0.28, 1.42, -3.31, 2.21, 1.54, 7.06, repro,
2008-06-14,1.87, 0.02, -3.17, 2.28, 1.58, 7.22, repro,
2008-06-15,1.57, 0.82, -5.00, 2.28, 1.57, 7.21, repro,
2008-06-16,0.04, 0.70, -5.83, 2.20, 1.53, 7.02, repro,
2008-06-17,-0.64, 0.67, -3.54, 2.20, 1.53, 6.98, repro,
2008-06-18,-0.46, 0.90, -5.05, 2.22, 1.53, 7.03, repro,
2008-06-19,0.48, 0.53, -10.15, 2.29, 1.64, 7.52, repro,
2008-06-20,1.27, 0.95, -5.82, 2.22, 1.54, 7.02, repro,
2008-06-21,-0.35, 0.54, -8.47, 2.24, 1.54, 7.09, repro,
2008-06-22,-0.31, 1.35, -1.92, 2.20, 1.54, 7.07, repro,
2008-06-23,-0.15, 0.87, -3.99, 2.19, 1.53, 6.95, repro,
2008-06-24,-1.28, 1.01, -2.89, 2.22, 1.54, 7.03, repro,
2008-06-25,-0.40, 0.69, 1.81, 2.21, 1.54, 7.01, repro,
2008-06-26,0.86, 0.35, 1.27, 2.23, 1.58, 7.13, repro,
2008-06-27,0.97, -0.39, -0.17, 2.22, 1.54, 7.01, repro,
2008-06-28,0.21, 0.90, -3.48, 2.20, 1.53, 6.95, repro,
2008-06-29,0.16, -0.40, 0.07, 2.22, 1.54, 7.04, repro,
2008-06-30,0.25, 2.68, -7.81, 2.23, 1.56, 7.10, repro,
2008-07-01,0.42, 0.16, 2.75, 2.21, 1.55, 7.01, repro,
2008-07-02,1.15, 0.51, -0.26, 2.23, 1.55, 7.06, repro,
2008-07-03,0.89, 0.92, 5.49, 2.25, 1.56, 7.18, repro,
2008-07-04,-1.01, -0.67, 2.23, 2.21, 1.54, 7.06, repro,
2008-07-05,0.07, -0.75, -0.49, 2.22, 1.54, 7.06, repro,
2008-07-06,0.63, 0.76, 2.36, 2.21, 1.54, 7.01, repro,
2008-07-07,1.13, 0.25, 2.13, 2.21, 1.54, 7.00, repro,
2008-07-08,0.84, -0.22, -1.15, 2.20, 1.53, 7.00, repro,
2008-07-09,-0.21, 0.66, 7.16, 2.22, 1.54, 7.03, repro,
2008-07-10,-2.06, 0.13, 5.57, 2.28, 1.58, 7.22, repro,
2008-07-11,-0.12, 0.20, -1.12, 2.31, 1.59, 7.24, repro,
2008-07-12,1.40, 0.47, 0.90, 2.23, 1.54, 7.03, repro,
2008-07-13,0.72, -0.42, 1.88, 2.25, 1.60, 7.30, repro,
2008-07-14,0.11, 0.25, 6.32, 2.23, 1.54, 7.09, repro,
2008-07-15,-0.29, 0.39, 0.93, 2.21, 1.54, 7.03, repro,
2008-07-16,1.05, 0.16, -4.11, 2.22, 1.54, 7.07, repro,
2008-07-17,1.46, 0.14, 0.54, 2.20, 1.54, 6.99, repro,
2008-07-18,2.41, 1.36, 3.73, 2.34, 1.60, 7.33, repro,
2008-07-19,0.65, 0.33, 5.79, 2.28, 1.56, 7.16, repro,
2008-07-20,0.53, 0.92, 6.91, 2.21, 1.54, 7.02, repro,
2008-07-21,0.68, 0.60, 10.60, 2.22, 1.54, 7.05, repro,
2008-07-22,2.26, -0.39, 9.00, 2.22, 1.53, 7.01, repro,
2008-07-23,-1.04, 0.85, 15.39, 2.25, 1.55, 7.05, repro,
2008-07-24,-0.70, 0.34, 2.72, 2.23, 1.55, 7.05, repro,
2008-07-25,0.01, -0.13, 4.41, 2.22, 1.54, 7.01, repro,
2008-07-26,1.92, 0.12, 3.55, 2.19, 1.53, 6.93, repro,
2008-07-27,-1.27, 0.85, 8.98, 2.23, 1.53, 7.01, repro,
2008-07-28,0.45, -0.88, 5.95, 2.28, 1.56, 7.08, repro,
2008-07-29,0.81, 1.68, 17.05, 2.26, 1.55, 7.20, repro,
2008-07-30,-0.39, -0.90, 13.25, 2.31, 1.56, 7.32, repro,
2008-07-31,-0.81, -0.53, 10.70, 2.20, 1.53, 7.01, repro,
2008-08-01,-0.49, -0.89, 8.97, 2.19, 1.53, 6.95, repro,
2008-08-02,-0.82, -0.02, 10.66, 2.22, 1.54, 7.04, repro,
2008-08-03,0.89, -0.01, 8.96, 2.24, 1.56, 7.11, repro,
2008-08-04,-0.63, -0.18, 7.82, 2.21, 1.54, 7.01, repro,
2008-08-05,-0.20, 0.68, 7.70, 2.20, 1.53, 6.99, repro,
2008-08-06,-0.74, -0.11, 5.49, 2.26, 1.54, 7.02, repro,
2008-08-07,-1.18, -0.67, 10.93, 2.35, 1.66, 7.39, repro,
2008-08-08,-3.16, 2.01, 23.21, 2.33, 1.60, 7.27, repro,
2008-08-09,0.79, 0.89, 7.07, 2.24, 1.53, 6.94, repro,
2008-08-10,0.04, -0.77, 0.42, 2.25, 1.55, 7.04, repro,
2008-08-11,0.24, -0.62, 9.28, 2.25, 1.54, 7.04, repro,
2008-08-12,-0.91, 0.88, 8.21, 2.26, 1.56, 7.13, repro,
2008-08-13,0.13, 0.04, 7.48, 2.26, 1.55, 7.07, repro,
2008-08-14,-0.45, 0.24, 4.51, 2.24, 1.54, 6.98, repro,
2008-08-15,-0.40, -0.33, 8.17, 2.26, 1.55, 7.08, repro,
2008-08-16,-0.91, -0.00, 10.21, 2.26, 1.54, 7.03, repro,
2008-08-17,-0.34, 0.43, 11.20, 2.27, 1.55, 7.11, repro,
2008-08-18,-1.58, 0.52, 16.33, 2.28, 1.55, 7.08, repro,
2008-08-19,-2.25, -1.56, 13.22, 2.27, 1.56, 7.07, repro,
2008-08-20,-1.51, -0.47, 18.67, 2.27, 1.55, 7.06, repro,
2008-08-21,-1.95, -0.86, 16.71, 2.28, 1.55, 7.08, repro,
2008-08-22,0.50, -0.64, 13.66, 2.26, 1.53, 6.98, repro,
2008-08-23,0.37, -0.72, 7.97, 2.27, 1.54, 7.04, repro,
2008-08-24,-0.39, -0.01, 9.87, 2.28, 1.57, 7.13, repro,
2008-08-25,-1.33, 0.09, 10.80, 2.28, 1.57, 7.19, repro,
2008-08-26,-2.64, -0.06, 13.61, 2.28, 1.59, 7.18, repro,
2008-08-27,-3.19, -1.22, 19.12, 2.28, 1.56, 7.13, repro,
2008-08-28,-0.47, -0.03, 9.63, 2.43, 1.64, 7.43, repro,
2008-08-29,0.20, -0.99, 6.08, 2.30, 1.57, 7.15, repro,
2008-08-30,0.38, -0.29, 16.10, 2.31, 1.58, 7.18, repro,
2008-08-31,-0.94, -0.35, 9.66, 2.29, 1.58, 7.15, repro,
2008-09-01,-0.56, -0.19, 5.74, 2.28, 1.56, 7.10, repro,
2008-09-02,-0.20, -0.91, 2.55, 2.28, 1.58, 7.15, repro,
2008-09-03,0.28, 0.15, 6.47, 2.32, 1.63, 7.40, repro,
2008-09-04,0.92, -0.55, 3.92, 2.44, 1.68, 7.68, repro,
2008-09-05,-0.66, -0.01, 6.68, 2.36, 1.62, 7.35, repro,
2008-09-06,-0.49, -0.98, 4.27, 2.27, 1.57, 7.09, repro,
2008-09-07,-0.89, -0.12, 8.35, 2.26, 1.56, 7.09, repro,
2008-09-08,0.31, -0.87, 7.32, 2.27, 1.57, 7.13, repro,
2008-09-09,0.68, -0.18, 8.17, 2.35, 1.57, 7.20, repro,
2008-09-10,-0.30, -0.48, 7.04, 2.32, 1.61, 7.24, repro,
2008-09-11,-0.55, -0.34, 8.38, 2.36, 1.66, 7.44, repro,
2008-09-12,-0.16, -0.64, 10.27, 2.31, 1.61, 7.27, repro,
2008-09-13,-0.67, -0.63, 17.63, 2.28, 1.56, 7.11, repro,
2008-09-14,0.78, 0.37, 10.95, 2.27, 1.57, 7.10, repro,
2008-09-15,0.98, 0.71, 5.09, 2.30, 1.57, 7.12, repro,
2008-09-16,0.28, 0.28, 6.27, 2.28, 1.59, 7.22, repro,
2008-09-17,0.59, -0.36, 2.77, 2.34, 1.59, 7.25, repro,
2008-09-18,0.24, 0.33, 5.41, 2.24, 1.53, 6.98, repro,
2008-09-19,-0.09, -0.21, 7.22, 2.24, 1.54, 7.00, repro,
2008-09-20,0.07, 0.75, 11.37, 2.26, 1.54, 7.02, repro,
2008-09-21,0.37, 0.88, 10.83, 2.31, 1.58, 7.15, repro,
2008-09-22,0.70, 0.84, 14.82, 2.26, 1.55, 7.02, repro,
2008-09-23,0.71, -0.00, 6.52, 2.24, 1.53, 6.94, repro,
2008-09-24,-0.74, 0.25, 7.21, 2.34, 1.63, 7.35, repro,
2008-09-25,-0.77, -0.05, 7.49, 2.27, 1.55, 7.07, repro,
2008-09-26,1.16, 0.04, 7.86, 2.26, 1.54, 7.01, repro,
2008-09-27,-0.80, 0.47, 5.70, 2.31, 1.58, 7.16, repro,
2008-09-28,1.08, 0.00, -0.12, 2.25, 1.54, 6.95, repro,
2008-09-29,0.74, 0.00, 2.76, 2.29, 1.59, 7.11, repro,
2008-09-30,0.66, -0.19, 3.09, 2.24, 1.54, 6.99, repro,
2008-10-01,0.67, 0.22, 7.28, 2.25, 1.53, 6.96, repro,
2008-10-02,-0.29, 0.58, 5.77, 2.32, 1.59, 7.21, repro,
2008-10-03,-1.83, 0.34, 12.65, 2.36, 1.63, 7.34, repro,
2008-10-04,0.14, 0.17, 12.09, 2.27, 1.54, 7.04, repro,
2008-10-05,0.57, -1.08, 6.05, 2.25, 1.54, 6.97, repro,
2008-10-06,-0.80, -0.34, 4.62, 2.25, 1.54, 6.98, repro,
2008-10-07,-0.25, -0.34, 8.21, 2.28, 1.53, 6.99, repro,
2008-10-08,0.25, 0.25, 1.11, 2.29, 1.56, 7.09, repro,
2008-10-09,0.42, -0.90, 3.99, 2.20, 1.52, 6.87, repro,
2008-10-10,0.80, 0.38, -2.03, 2.20, 1.53, 6.93, repro,
2008-10-11,0.62, 0.07, -1.64, 2.19, 1.53, 6.89, repro,
2008-10-12,-0.61, 0.23, 2.22, 2.20, 1.52, 6.90, repro,
2008-10-13,-0.42, -0.43, 3.36, 2.22, 1.52, 6.93, repro,
2008-10-14,0.11, 0.53, 3.13, 2.20, 1.52, 6.88, repro,
2008-10-15,0.76, 0.08, -0.49, 2.27, 1.55, 7.09, repro,
2008-10-16,-0.12, -0.05, 1.47, 2.26, 1.55, 7.11, repro,
2008-10-17,-0.21, 0.27, -3.75, 2.19, 1.52, 6.91, repro,
2008-10-18,0.86, -0.58, 5.68, 2.21, 1.52, 6.99, repro,
2008-10-19,1.39, 0.40, 5.74, 2.21, 1.52, 6.95, repro,
2008-10-20,0.40, 1.36, 5.28, 2.20, 1.53, 6.94, repro,
2008-10-21,-0.25, -0.02, 0.07, 2.20, 1.54, 6.97, repro,
2008-10-22,-0.91, 0.04, -4.43, 2.28, 1.65, 7.51, repro,
2008-10-23,-1.51, 0.01, 4.89, 2.19, 1.53, 6.91, repro,
2008-10-24,0.24, -0.20, 8.84, 2.21, 1.51, 6.91, repro,
2008-10-25,0.60, 0.51, 1.37, 2.21, 1.53, 6.97, repro,
2008-10-26,0.86, -0.66, -4.32, 2.19, 1.53, 6.94, repro,
2008-10-27,-0.46, 0.04, -7.04, 2.19, 1.53, 6.91, repro,
2008-10-28,0.71, -0.09, -3.26, 2.28, 1.54, 6.97, repro,
2008-10-29,-0.54, -0.75, 0.38, 2.40, 1.65, 7.50, repro,
2008-10-30,0.97, 0.19, 6.90, 2.21, 1.52, 6.92, repro,
2008-10-31,0.54, -0.11, 2.28, 2.36, 1.69, 7.73, repro,
2008-11-01,-0.88, 0.56, 1.19, 2.22, 1.56, 7.07, repro,
2008-11-02,-0.51, -0.39, 8.46, 2.22, 1.57, 7.09, repro,
2008-11-03,-0.36, -0.60, 5.87, 2.24, 1.55, 7.05, repro,
2008-11-04,0.55, -1.09, 11.66, 2.25, 1.56, 7.12, repro,
2008-11-05,1.35, -0.42, 6.29, 2.22, 1.56, 7.06, repro,
2008-11-06,-0.01, -0.01, 0.43, 2.24, 1.59, 7.18, repro,
2008-11-07,-0.16, -0.27, 1.30, 2.25, 1.58, 7.14, repro,
2008-11-08,0.27, 0.05, 0.31, 2.23, 1.58, 7.15, repro,
2008-11-09,0.12, -0.98, 6.94, 2.25, 1.56, 7.10, repro,
2008-11-10,1.14, -1.68, 6.92, 2.24, 1.58, 7.12, repro,
2008-11-11,0.90, -0.12, 7.46, 2.34, 1.70, 7.71, repro,
2008-11-12,0.80, -2.04, 11.07, 2.20, 1.54, 6.96, repro,
2008-11-13,-0.15, -3.06, -2.41, 2.25, 1.58, 7.04, repro,
2008-11-14,-0.25, -0.73, -5.07, 2.30, 1.64, 7.37, repro,
2008-11-15,-0.40, -0.17, -4.18, 2.30, 1.64, 7.38, repro,
2008-11-16,1.06, -1.16, -2.80, 2.35, 1.70, 7.59, repro,
2008-11-17,0.61, -0.02, -6.55, 2.29, 1.65, 7.37, repro,
2008-11-18,1.09, -0.80, -0.87, 2.35, 1.74, 7.80, repro,
2008-11-19,0.00, 0.10, -2.81, 2.32, 1.65, 7.45, repro,
2008-11-20,0.48, -0.60, -8.16, 2.29, 1.63, 7.34, repro,
2008-11-21,-0.49, 0.26, -7.13, 2.38, 1.75, 7.87, repro,
2008-11-22,1.10, 0.12, 4.60, 2.39, 1.73, 7.89, repro,
2008-11-23,0.88, -0.48, -0.74, 2.36, 1.67, 7.49, repro,
2008-11-24,0.99, -0.49, 2.69, 2.38, 1.72, 7.68, repro,
2008-11-25,0.08, -0.59, -0.29, 2.28, 1.65, 7.37, repro,
2008-11-26,-0.35, -0.64, 0.25, 2.22, 1.55, 6.99, repro,
2008-11-27,1.05, -0.16, -1.39, 2.23, 1.62, 7.23, repro,
2008-11-28,1.15, -1.14, 1.12, 2.29, 1.67, 7.38, repro,
2008-11-29,-1.75, 2.37, -1.50, 2.39, 1.76, 7.91, repro,
2008-11-30,0.42, -0.31, 3.93, 2.22, 1.56, 7.07, repro,
2008-12-01,0.33, -0.26, 2.17, 2.19, 1.53, 6.90, repro,
2008-12-02,0.61, 0.60, 5.29, 2.28, 1.63, 7.26, repro,
2008-12-03,0.67, -0.49, -1.29, 2.27, 1.63, 7.23, repro,
2008-12-04,-0.40, 0.50, -5.17, 2.35, 1.79, 7.83, repro,
2008-12-05,0.61, -0.48, -1.00, 2.27, 1.63, 7.25, repro,
2008-12-06,1.22, -1.15, -1.44, 2.35, 1.76, 7.84, repro,
2008-12-07,1.00, -0.92, 5.01, 2.31, 1.70, 7.67, repro,
2008-12-08,2.57, 0.17, 4.54, 2.25, 1.63, 7.31, repro,
2008-12-09,1.67, -0.54, -8.45, 2.24, 1.59, 7.06, repro,
2008-12-10,1.74, -0.54, -4.97, 2.18, 1.54, 6.92, repro,
2008-12-11,0.62, -0.77, -6.35, 2.37, 1.68, 7.57, repro,
2008-12-12,0.85, -0.40, -0.34, 2.31, 1.62, 7.38, repro,
2008-12-13,2.23, -1.07, 8.31, 2.22, 1.56, 7.07, repro,
2008-12-14,2.28, 0.61, 5.72, 2.20, 1.53, 6.97, repro,
2008-12-15,2.07, 0.10, 3.45, 2.19, 1.55, 6.92, repro,
2008-12-16,0.60, -0.31, 3.12, 2.18, 1.54, 6.91, repro,
2008-12-17,0.90, 0.48, -1.79, 2.26, 1.56, 7.09, repro,
2008-12-18,1.20, -0.71, 1.83, 2.21, 1.52, 6.98, repro,
2008-12-19,1.00, 0.96, -2.62, 2.26, 1.55, 7.17, repro,
2008-12-20,1.16, 1.43, -5.26, 2.21, 1.58, 7.09, repro,
2008-12-21,0.82, 0.19, -0.57, 2.18, 1.52, 6.91, repro,
2008-12-22,0.87, -0.26, 2.69, 2.17, 1.52, 6.86, repro,
2008-12-23,0.95, -0.30, 5.71, 2.19, 1.52, 6.90, repro,
2008-12-24,0.89, -0.79, 8.57, 2.21, 1.53, 7.01, repro,
2008-12-25,0.63, -1.22, 12.18, 2.19, 1.53, 6.94, repro,
2008-12-26,0.32, -1.04, 6.16, 2.18, 1.53, 6.92, repro,
2008-12-27,-0.16, -0.18, 5.84, 2.18, 1.52, 6.89, repro,
2008-12-28,0.06, -2.42, 5.24, 2.20, 1.52, 6.93, repro,
2008-12-29,-0.66, -0.65, -1.88, 2.20, 1.52, 6.92, repro,
2008-12-30,0.35, -0.31, -6.54, 2.20, 1.54, 7.01, repro,